Oxford, MS

9:41 PM CST on November 20, 2017 (GMT -0600)
University-Oxford

Weather History for KUOX - April, 2014

Change the Weather History Date:

Tuesday, April 22, 2014

  Actual Average Record
Temperature  
Mean Temperature 65 °F -  
Max Temperature 77 °F 73 °F 93 °F (1987)
Min Temperature 50 °F 51 °F 36 °F (1931)
Growing Degree Days 15 (Base 50)    
Moisture  
Dew Point 56 °F    
Average Humidity 72    
Maximum Humidity 100    
Minimum Humidity 47    
Precipitation  
Precipitation 0.01 in - - ()
Sea Level Pressure  
Sea Level Pressure 29.94 in    
Wind  
Wind Speed 3 mph (NNW)    
Max Wind Speed 12 mph    
Max Gust Speed -    
Visibility 8 miles    
Events Rain    
Averages and records for this station are not official NWS values.
T = Trace of Precipitation, MM = Missing Value Source: NWS Daily Summary

Daily Weather History Graph

Daily Weather History Graph

Search for Another Location

Airport or City:

Trip Planner

Search our weather history database for the weather conditions in past years. The results will help you decide how hot, cold, wet, or windy it might be!

Date:

Astronomy

Apr. 22, 2014 Rise Set
Actual Time 6:18 AM CDT 7:35 PM CDT
Civil Twilight 5:52 AM CDT 8:01 PM CDT
Nautical Twilight 5:20 AM CDT 8:33 PM CDT
Astronomical Twilight 4:48 AM CDT 9:05 PM CDT
Moon 1:49 AM CDT (4/22) 12:54 PM CDT (4/22)
Length of Visible Light 14h 09m
Length of Day
13h 17m
Last Quarter, 46% of the Moon is Illuminated
Apr 22
Last Quarter
Apr 29
New
May 6
First Quarter
May 14
Full
May 21
Last Quarter

Hourly Weather History & Observations

Time (CDT) Temp. Dew Point Humidity Pressure Visibility Wind Dir Wind Speed Gust Speed Precip Events Conditions
12:15 AM 66.2 °F 55.4 °F 68% 29.97 in 10.0 mi Calm Calm - N/A   Scattered Clouds
12:35 AM 64.4 °F 55.4 °F 73% 29.98 in 7.0 mi NW 4.6 mph - N/A   Mostly Cloudy
12:55 AM 64.4 °F 55.4 °F 73% 29.97 in 10.0 mi Calm Calm - N/A   Mostly Cloudy
1:15 AM 64.4 °F 55.4 °F 73% 29.97 in 10.0 mi Calm Calm - N/A   Scattered Clouds
1:35 AM 62.6 °F 57.2 °F 82% 29.96 in 8.0 mi Calm Calm - N/A Rain Light Rain
1:55 AM 62.6 °F 59.0 °F 88% 29.96 in 5.0 mi Calm Calm - N/A Rain Light Rain
2:15 AM 60.8 °F 59.0 °F 94% 29.95 in 5.0 mi Calm Calm - N/A Rain Light Rain
2:35 AM 60.8 °F 59.0 °F 94% 29.95 in 5.0 mi Calm Calm - 0.01 in Rain Light Rain
2:55 AM 59.0 °F 59.0 °F 100% 29.94 in 5.0 mi Calm Calm - 0.01 in Rain Light Rain
3:15 AM 60.8 °F 59.0 °F 94% 29.94 in 4.0 mi Calm Calm - N/A Rain Light Rain
3:35 AM 60.8 °F 59.0 °F 94% 29.93 in 4.0 mi Calm Calm - N/A Rain Light Rain
3:55 AM 59.0 °F 59.0 °F 100% 29.93 in 4.0 mi Calm Calm - N/A Rain Light Rain
4:15 AM 59.0 °F 59.0 °F 100% 29.93 in 6.0 mi Calm Calm - N/A Rain Light Rain
4:35 AM 59.0 °F 59.0 °F 100% 29.93 in 4.0 mi Calm Calm - N/A Rain Light Rain
5:15 AM 59.0 °F 59.0 °F 100% 29.92 in 3.0 mi Calm Calm - N/A   Scattered Clouds
5:35 AM 59.0 °F 59.0 °F 100% 29.92 in 4.0 mi Calm Calm - N/A   Mostly Cloudy
5:55 AM 59.0 °F 59.0 °F 100% 29.93 in 5.0 mi Calm Calm - N/A   Overcast
6:15 AM 59.0 °F 59.0 °F 100% 29.93 in 7.0 mi Calm Calm - N/A   Overcast
6:35 AM 60.8 °F 59.0 °F 94% 29.94 in 3.0 mi Calm Calm - N/A   Overcast
6:55 AM 60.8 °F 59.0 °F 94% 29.95 in 5.0 mi Calm Calm - N/A   Overcast
7:15 AM 60.8 °F 59.0 °F 94% 29.96 in 1.8 mi Calm Calm - N/A Rain Light Rain
7:35 AM 60.8 °F 59.0 °F 94% 29.96 in 3.0 mi Calm Calm - N/A Rain Light Rain
7:55 AM 60.8 °F 59.0 °F 94% 29.96 in 4.0 mi Calm Calm - N/A   Mostly Cloudy
8:15 AM 62.6 °F 59.0 °F 88% 29.95 in 5.0 mi West 3.5 mph - N/A   Scattered Clouds
8:35 AM 62.6 °F 60.8 °F 94% 29.95 in 8.0 mi WNW 3.5 mph - N/A   Partly Cloudy
8:55 AM 62.6 °F 59.0 °F 88% 29.95 in 9.0 mi West 3.5 mph - N/A   Scattered Clouds
9:15 AM 64.4 °F 59.0 °F 83% 29.96 in 10.0 mi NW 3.5 mph - N/A   Scattered Clouds
9:35 AM 66.2 °F 59.0 °F 78% 29.97 in 10.0 mi NW 6.9 mph - N/A   Mostly Cloudy
9:55 AM 66.2 °F 59.0 °F 78% 29.97 in 10.0 mi NW 5.8 mph - N/A   Overcast
10:15 AM 66.2 °F 59.0 °F 78% 29.96 in 10.0 mi NNW 3.5 mph - N/A   Mostly Cloudy
10:35 AM 68.0 °F 59.0 °F 73% 29.96 in 10.0 mi North 4.6 mph - N/A   Mostly Cloudy
10:55 AM 68.0 °F 59.0 °F 73% 29.97 in 10.0 mi NNW 4.6 mph - N/A   Overcast
11:15 AM 68.0 °F 59.0 °F 73% 29.97 in 10.0 mi NNW 8.1 mph - N/A   Overcast
11:35 AM 68.0 °F 59.0 °F 73% 29.96 in 9.0 mi North 5.8 mph - N/A   Overcast
11:55 AM 68.0 °F 59.0 °F 73% 29.96 in 10.0 mi NNW 6.9 mph - N/A   Unknown
12:15 PM 69.8 °F 59.0 °F 68% 29.95 in 10.0 mi NNE 6.9 mph - N/A   Mostly Cloudy
12:35 PM 71.6 °F 59.0 °F 64% 29.95 in 10.0 mi NNW 5.8 mph - N/A   Mostly Cloudy
12:55 PM 73.4 °F 59.0 °F 61% 29.94 in 10.0 mi North 9.2 mph - N/A   Partly Cloudy
1:15 PM 73.4 °F 59.0 °F 61% 29.94 in 10.0 mi North 6.9 mph - N/A   Partly Cloudy
1:35 PM 73.4 °F 59.0 °F 61% 29.93 in 10.0 mi NW 6.9 mph - N/A   Partly Cloudy
1:55 PM 73.4 °F 57.2 °F 57% 29.93 in 10.0 mi North 4.6 mph - N/A   Scattered Clouds
2:15 PM 73.4 °F 59.0 °F 61% 29.93 in 10.0 mi NW 4.6 mph - N/A   Scattered Clouds
2:35 PM 75.2 °F 57.2 °F 53% 29.92 in 10.0 mi NNW 9.2 mph - N/A   Scattered Clouds
2:55 PM 75.2 °F 57.2 °F 53% 29.92 in 10.0 mi North 9.2 mph - N/A   Partly Cloudy
3:15 PM 75.2 °F 55.4 °F 50% 29.91 in 10.0 mi North 6.9 mph - N/A   Partly Cloudy
3:35 PM 77.0 °F 55.4 °F 47% 29.91 in 10.0 mi NW 8.1 mph - N/A   Partly Cloudy
3:55 PM 75.2 °F 55.4 °F 50% 29.91 in 10.0 mi NW 9.2 mph - N/A   Partly Cloudy
4:15 PM 77.0 °F 57.2 °F 50% 29.91 in 10.0 mi NNW 11.5 mph - N/A   Scattered Clouds
4:35 PM 75.2 °F 57.2 °F 53% 29.91 in 10.0 mi North 6.9 mph - N/A   Mostly Cloudy
4:55 PM 75.2 °F 55.4 °F 50% 29.91 in 10.0 mi North 9.2 mph - N/A   Scattered Clouds
5:15 PM 75.2 °F 55.4 °F 50% 29.91 in 10.0 mi North 9.2 mph - N/A   Partly Cloudy
5:35 PM 75.2 °F 55.4 °F 50% 29.91 in 10.0 mi North 6.9 mph - N/A   Clear
5:55 PM 73.4 °F 55.4 °F 53% 29.91 in 10.0 mi NNW 6.9 mph - N/A   Clear
6:15 PM 73.4 °F 55.4 °F 53% 29.91 in 10.0 mi North 6.9 mph - N/A   Clear
6:35 PM 71.6 °F 55.4 °F 57% 29.91 in 10.0 mi NNW 6.9 mph - N/A   Clear
6:55 PM 71.6 °F 55.4 °F 57% 29.91 in 10.0 mi NNW 4.6 mph - N/A   Clear
7:15 PM 69.8 °F 55.4 °F 60% 29.92 in 10.0 mi NNW 4.6 mph - N/A   Clear
7:35 PM 68.0 °F 55.4 °F 64% 29.92 in 10.0 mi NNW 4.6 mph - N/A   Clear
7:55 PM 66.2 °F 55.4 °F 68% 29.93 in 10.0 mi North 4.6 mph - N/A   Clear
8:15 PM 66.2 °F 53.6 °F 64% 29.94 in 10.0 mi North 4.6 mph - N/A   Clear
8:35 PM 66.2 °F 50.0 °F 56% 29.95 in 10.0 mi North 5.8 mph - N/A   Clear
8:55 PM 64.4 °F 48.2 °F 56% 29.95 in 10.0 mi NNE 3.5 mph - N/A   Clear
9:15 PM 62.6 °F 48.2 °F 59% 29.96 in 10.0 mi North 3.5 mph - N/A   Clear
9:35 PM 62.6 °F 46.4 °F 55% 29.96 in 10.0 mi NNE 3.5 mph - N/A   Clear
9:55 PM 62.6 °F 44.6 °F 52% 29.97 in 10.0 mi NNE 4.6 mph - N/A   Clear
10:15 PM 60.8 °F 42.8 °F 52% 29.97 in 10.0 mi NNE 3.5 mph - N/A   Clear
10:35 PM 59.0 °F 42.8 °F 55% 29.97 in 10.0 mi NNE 3.5 mph - N/A   Clear
10:55 PM 57.2 °F 42.8 °F 59% 29.97 in 10.0 mi Calm Calm - N/A   Clear
11:15 PM 55.4 °F 44.6 °F 67% 29.97 in 10.0 mi Calm Calm - N/A   Clear
11:35 PM 53.6 °F 44.6 °F 72% 29.98 in 10.0 mi Calm Calm - N/A   Clear
11:55 PM 50.0 °F 46.4 °F 87% 29.97 in 10.0 mi Calm Calm - N/A   Clear